FW7737 Weather Reports


Display with metric or nautical units.
time (UTC)temp
F
wind
direction
speed
MPH
gust
MPH
rain 1hr
in
rain 24hr
in
rain mn
in
humidity
%
barometer
mb
20260505022229 79 226 2.0 2.0 0.00 0.00 0.00 42 1008.9
20260505021726 79 236 1.0 2.0 0.00 0.00 0.00 41 1009.2
20260505021223 78 219 1.0 1.0 0.00 0.00 0.00 42 1008.9
20260505020719 79 219 1.0 1.0 0.00 0.00 0.00 41 1008.5
20260505020214 79 227 1.0 1.0 0.00 0.00 0.00 41 1008.9
20260505015712 78 299 2.0 2.0 0.00 0.00 0.00 41 1008.9
20260505015209 78 245 2.0 3.0 0.00 0.00 0.00 40 1008.9
20260505014705 79 252 4.0 6.0 0.00 0.00 0.00 39 1008.9
20260505014203 79 215 2.0 2.0 0.00 0.00 0.00 40 1008.9
20260505013700 79 247 1.0 1.0 0.00 0.00 0.00 39 1009.2
20260505013157 79 216 2.0 2.0 0.00 0.00 0.00 39 1009.2
20260505012655 79 207 2.0 2.0 0.00 0.00 0.00 39 1008.9
20260505012152 79 197 3.0 3.0 0.00 0.00 0.00 39 1008.9
20260505011653 79 225 0.0 0.0 0.00 0.00 0.00 37 1009.2
20260505011150 80 252 3.0 3.0 0.00 0.00 0.00 38 1009.2
20260505010645 79 233 1.0 2.0 0.00 0.00 0.00 38 1009.2
20260505010142 80 256 2.0 6.0 0.00 0.00 0.00 38 1008.9
20260505005638 79 234 1.0 1.0 0.00 0.00 0.00 38 1009.2
20260505005135 80 256 3.0 3.0 0.00 0.00 0.00 36 1009.2
20260505004632 79 328 1.0 3.0 0.00 0.00 0.00 37 1009.2
20260505004129 80 354 4.0 4.0 0.00 0.00 0.00 37 1009.2
20260505003626 80 141 1.0 2.0 0.00 0.00 0.00 37 1009.2
20260505003124 80 225 4.0 6.0 0.00 0.00 0.00 37 1009.2
20260505002620 80 255 3.0 4.0 0.00 0.00 0.00 35 1009.2
20260505002118 80 243 2.0 3.0 0.00 0.00 0.00 35 1009.2
20260505001615 80 218 0.0 0.0 0.00 0.00 0.00 35 1009.2
20260505001113 80 257 1.0 1.0 0.00 0.00 0.00 36 1009.6
20260505000609 80 216 1.0 1.0 0.00 0.00 0.00 35 1009.2
20260505000107 79 250 4.0 4.0 0.00 0.00 0.00 36 1009.6
20260504235603 80 233 4.0 4.0 0.00 0.00 0.00 35 1009.6
20260504235100 79 234 4.0 6.0 0.00 0.00 0.00 36 1009.6
20260504234557 78 228 2.0 2.0 0.00 0.00 0.00 37 1009.6
20260504234054 80 247 2.0 3.0 0.00 0.00 0.00 35 1009.6
20260504233549 80 223 4.0 6.0 0.00 0.00 0.00 35 1009.6
20260504233046 80 184 3.0 4.0 0.00 0.00 0.00 35 1009.6
20260504232543 80 263 5.0 7.0 0.00 0.00 0.00 36 1009.6
20260504232041 80 245 2.0 2.0 0.00 0.00 0.00 35 1009.6
20260504231537 80 255 1.0 1.0 0.00 0.00 0.00 34 1009.2
20260504231033 79 239 3.0 4.0 0.00 0.00 0.00 35 1009.6
20260504230530 79 234 3.0 4.0 0.00 0.00 0.00 36 1009.6
20260504230029 79 290 3.0 4.0 0.00 0.00 0.00 36 1009.6
20260504225526 80 277 4.0 4.0 0.00 0.00 0.00 36 1009.6
20260504225023 79 220 1.0 1.0 0.00 0.00 0.00 36 1009.6
20260504224519 80 162 3.0 4.0 0.00 0.00 0.00 35 1009.6
20260504224017 79 218 3.0 3.0 0.00 0.00 0.00 37 1009.9
20260504223513 79 237 1.0 2.0 0.00 0.00 0.00 36 1009.9
20260504223009 80 239 8.0 9.0 0.00 0.00 0.00 36 1009.9
20260504222506 79 196 2.0 3.0 0.00 0.00 0.00 36 1009.9
20260504222004 79 240 5.0 6.0 0.00 0.00 0.00 35 1009.9
20260504221501 79 329 7.0 8.0 0.00 0.00 0.00 37 1009.9
20260504220958 80 239 3.0 4.0 0.00 0.00 0.00 36 1009.9
20260504220454 78 263 3.0 4.0 0.00 0.00 0.00 37 1010.2
20260504215951 79 332 6.0 7.0 0.00 0.00 0.00 36 1010.2
20260504215447 78 247 2.0 3.0 0.00 0.00 0.00 35 1010.6
20260504214944 80 351 4.0 4.0 0.00 0.00 0.00 34 1010.2
20260504214441 80 257 4.0 4.0 0.00 0.00 0.00 33 1010.2
20260504213937 79 260 4.0 6.0 0.00 0.00 0.00 34 1010.2
20260504213433 80 256 5.0 7.0 0.00 0.00 0.00 32 1010.2
20260504212931 80 293 5.0 7.0 0.00 0.00 0.00 36 1010.2
20260504212426 79 236 3.0 4.0 0.00 0.00 0.00 36 1010.2
20260504211925 80 245 9.0 9.0 0.00 0.00 0.00 35 1010.2
20260504211420 79 259 3.0 4.0 0.00 0.00 0.00 36 1010.2
20260504210918 79 332 3.0 4.0 0.00 0.00 0.00 38 1010.2
20260504210415 79 305 2.0 2.0 0.00 0.00 0.00 37 1010.2
20260504205912 78 36 4.0 4.0 0.00 0.00 0.00 38 1010.2
20260504205410 79 351 6.0 9.0 0.00 0.00 0.00 36 1010.2
20260504204908 79 190 2.0 2.0 0.00 0.00 0.00 38 1010.2
20260504204406 79 340 2.0 2.0 0.00 0.00 0.00 37 1010.2
20260504203905 78 104 1.0 2.0 0.00 0.00 0.00 39 1010.6
20260504203402 79 268 2.0 4.0 0.00 0.00 0.00 37 1010.6
20260504202857 78 238 2.0 2.0 0.00 0.00 0.00 37 1010.2
20260504202354 78 341 3.0 6.0 0.00 0.00 0.00 37 1010.6
20260504201851 77 277 3.0 4.0 0.00 0.00 0.00 37 1010.2
20260504201349 77 349 2.0 3.0 0.00 0.00 0.00 38 1010.6
20260504200846 78 311 2.0 3.0 0.00 0.00 0.00 37 1010.2
20260504200342 78 248 7.0 8.0 0.00 0.00 0.00 36 1010.6
20260504195839 78 206 1.0 2.0 0.00 0.00 0.00 38 1010.6
20260504195334 77 189 2.0 3.0 0.00 0.00 0.00 40 1010.6
20260504194832 77 1 5.0 7.0 0.00 0.00 0.00 38 1010.6
20260504194327 76 316 4.0 6.0 0.00 0.00 0.00 40 1010.6
20260504193823 78 204 3.0 4.0 0.00 0.00 0.00 39 1010.6
20260504193321 77 241 2.0 2.0 0.00 0.00 0.00 40 1010.2
20260504192820 77 260 3.0 8.0 0.00 0.00 0.00 41 1010.6
20260504192317 77 222 3.0 3.0 0.00 0.00 0.00 40 1010.6
20260504191816 76 215 1.0 1.0 0.00 0.00 0.00 41 1010.6
20260504191313 77 233 7.0 9.0 0.00 0.00 0.00 40 1010.6
20260504190808 77 246 3.0 3.0 0.00 0.00 0.00 40 1010.6
20260504190304 76 236 2.0 2.0 0.00 0.00 0.00 40 1010.6
20260504185801 76 281 3.0 3.0 0.00 0.00 0.00 42 1010.9
20260504185258 74 22 3.0 3.0 0.00 0.00 0.00 43 1010.6
20260504184754 76 343 5.0 6.0 0.00 0.00 0.00 42 1010.9
20260504184250 75 289 5.0 6.0 0.00 0.00 0.00 42 1010.9
20260504183746 75 13 2.0 3.0 0.00 0.00 0.00 43 1010.9
20260504183243 75 168 4.0 4.0 0.00 0.00 0.00 42 1010.6
20260504182741 75 256 1.0 1.0 0.00 0.00 0.00 43 1011.3
20260504182238 75 308 6.0 7.0 0.00 0.00 0.00 43 1010.9
20260504181736 74 180 0.0 0.0 0.00 0.00 0.00 47 1010.9
20260504181233 74 34 2.0 2.0 0.00 0.00 0.00 45 1010.6
20260504180732 75 220 2.0 2.0 0.00 0.00 0.00 46 1010.9
20260504180231 74 188 0.0 1.0 0.00 0.00 0.00 42 1010.9
20260504175728 74 279 3.0 4.0 0.00 0.00 0.00 44 1010.9
20260504175224 74 274 3.0 3.0 0.00 0.00 0.00 46 1010.9
20260504174722 73 158 4.0 4.0 0.00 0.00 0.00 49 1010.9
20260504174220 72 235 2.0 2.0 0.00 0.00 0.00 49 1010.9
20260504173716 72 257 2.0 2.0 0.00 0.00 0.00 51 1010.9
20260504173213 72 323 3.0 3.0 0.00 0.00 0.00 49 1010.9
20260504172709 72 241 1.0 1.0 0.00 0.00 0.00 48 1010.9
20260504172206 71 212 2.0 3.0 0.00 0.00 0.00 50 1010.9
20260504171702 71 181 1.0 2.0 0.00 0.00 0.00 50 1010.9
20260504171200 70 17 2.0 3.0 0.00 0.00 0.00 52 1010.6
20260504170656 70 265 2.0 3.0 0.00 0.00 0.00 50 1010.6
20260504170154 70 230 2.0 2.0 0.00 0.00 0.00 50 1010.9
20260504160112 66 237 2.0 3.0 0.00 0.00 0.00 57 1010.6
20260504151039 58 181 0.0 0.0 0.00 0.00 0.00 83 1010.2
20260504150536 59 184 0.0 0.0 0.00 0.00 0.00 84 1010.2
20260504141002 54 192 0.0 0.0 0.00 0.00 0.00 85 1009.9
20260504140459 54 192 0.0 1.0 0.00 0.00 0.00 85 1009.9
20260504130424 53 205 0.0 0.0 0.00 0.00 0.00 88 1009.6
20260504110310 54 188 1.0 1.0 0.00 0.00 0.00 87 1009.6
20260504100228 56 192 0.0 0.0 0.00 0.00 0.00 86 1009.2
20260504081622 58 198 0.0 0.0 0.00 0.00 0.00 81 1009.2
20260504081117 58 198 1.0 1.0 0.00 0.00 0.00 82 1009.2
20260504080614 58 198 0.0 0.0 0.00 0.00 0.00 82 1009.6
20260504080111 58 198 0.0 0.0 0.00 0.00 0.00 81 1009.6
20260504050427 64 201 1.0 1.0 0.00 0.00 0.00 62 1009.6
20260504045924 65 193 0.0 0.0 0.00 0.00 0.00 61 1009.6
20260504045420 65 193 0.0 0.0 0.00 0.00 0.00 59 1009.6
20260504044916 65 215 0.0 0.0 0.00 0.00 0.00 55 1009.6
20260504044414 66 204 0.0 0.0 0.00 0.00 0.00 58 1009.6
20260504043911 66 193 0.0 0.0 0.00 0.00 0.00 54 1009.6
20260504043408 66 193 0.0 0.0 0.00 0.00 0.00 55 1009.6
20260504042905 67 192 0.0 0.0 0.00 0.00 0.00 55 1009.6
20260504042402 67 223 0.0 0.0 0.00 0.00 0.00 54 1009.6
20260504041858 67 222 0.0 0.0 0.00 0.00 0.00 54 1009.2
20260504041354 67 228 0.0 0.0 0.00 0.00 0.00 57 1009.2
20260504040850 67 196 0.0 0.0 0.00 0.00 0.00 57 1009.6
20260504040348 68 196 0.0 0.0 0.00 0.00 0.00 55 1009.2
20260504035844 68 196 1.0 1.0 0.00 0.00 0.00 57 1009.2
20260504035342 68 222 0.0 0.0 0.00 0.00 0.00 57 1009.2
20260504034838 69 204 0.0 0.0 0.00 0.00 0.00 54 1009.2
20260504034336 69 253 1.0 2.0 0.00 0.00 0.00 57 1009.2
20260504033833 69 220 0.0 0.0 0.00 0.00 0.00 57 1009.2
20260504033331 69 197 0.0 0.0 0.00 0.00 0.00 59 1008.9
20260504032827 70 197 0.0 0.0 0.00 0.00 0.00 57 1009.2
20260504032324 71 179 0.0 0.0 0.00 0.00 0.00 58 1009.2
20260504031821 70 192 0.0 0.0 0.00 0.00 0.00 58 1008.9
20260504031319 71 192 0.0 0.0 0.00 0.00 0.00 58 1009.2
20260504030814 71 192 0.0 0.0 0.00 0.00 0.00 56 1009.2
20260504030312 72 192 0.0 0.0 0.00 0.00 0.00 56 1009.2
20260504025808 73 191 0.0 0.0 0.00 0.00 0.00 54 1009.2
20260504025305 73 188 0.0 1.0 0.00 0.00 0.00 52 1009.2
20260504024801 74 208 0.0 1.0 0.00 0.00 0.00 53 1009.2
20260504024258 74 22 2.0 2.0 0.00 0.00 0.00 52 1009.2
20260504023755 75 222 0.0 0.0 0.00 0.00 0.00 52 1009.6
20260504023251 75 230 0.0 0.0 0.00 0.00 0.00 51 1009.2
20260504022747 76 195 0.0 1.0 0.00 0.00 0.00 52 1009.2